YM2KV-13 Weather Reports


time (UTC)temp
F
wind
direction
speed
knots
gust
knots
rain 1hr
in
rain 24hr
in
rain mn
in
humidity
%
barometer
mb
20260507084951 74 0.0 0.0 0.00 0.00 0.00 40 1029.7
20260507083951 73 0.0 0.0 0.00 0.00 0.00 41 1029.7
20260507082951 73 0.0 0.0 0.00 0.00 0.00 44 1029.8
20260507081951 71 0.0 0.0 0.00 0.00 0.00 42 1029.9
20260507080951 71 0.0 0.0 0.00 0.00 0.00 44 1029.8
20260507075951 69 0.0 0.0 0.00 0.00 0.00 51 1029.9
20260507074951 68 0.0 0.0 0.00 0.00 0.00 52 1029.9
20260507073951 68 0.0 0.0 0.00 0.00 0.00 52 1029.9
20260507072951 68 0.0 0.0 0.00 0.00 0.00 56 1030.0
20260507071951 66 0.0 0.0 0.00 0.00 0.00 56 1030.0
20260507070951 65 0.0 0.0 0.00 0.00 0.00 58 1030.0
20260507065951 64 0.0 0.0 0.00 0.00 0.00 58 1030.0
20260507064950 62 0.0 0.0 0.00 0.00 0.00 62 1030.0
20260507063951 61 0.0 0.0 0.00 0.00 0.00 67 1030.0
20260507062951 60 0.0 0.0 0.00 0.00 0.00 67 1030.1
20260507061950 59 0.0 0.0 0.00 0.00 0.00 70 1030.1
20260507060950 57 0.0 0.0 0.00 0.00 0.00 70 1030.2
20260507055950 56 0.0 0.0 0.00 0.00 0.00 72 1030.3
20260507054950 55 0.0 0.0 0.00 0.00 0.00 74 1030.4
20260507053950 54 0.0 0.0 0.00 0.00 0.00 79 1030.3
20260507052950 52 0.0 0.0 0.00 0.00 0.00 82 1030.3
20260507051950 52 0.0 0.0 0.00 0.00 0.00 82 1030.3
20260507050951 50 0.0 0.0 0.00 0.00 0.00 84 1030.4
20260507045950 49 0.0 0.0 0.00 0.00 0.00 88 1030.3
20260507044950 48 0.0 0.0 0.00 0.00 0.00 90 1030.3
20260507043951 47 0.0 0.0 0.00 0.00 0.00 90 1030.2
20260507042950 46 0.0 0.0 0.00 0.00 0.00 91 1030.2
20260507041950 45 0.0 0.0 0.00 0.00 0.00 92 1030.2
20260507040950 44 0.0 0.0 0.00 0.00 0.00 91 1030.1
20260507035950 43 0.0 0.0 0.00 0.00 0.00 91 1029.9
20260507034950 43 0.0 0.0 0.00 0.00 0.00 91 1029.9
20260507033950 42 0.0 0.0 0.00 0.00 0.00 91 1029.7
20260507032950 42 0.0 0.0 0.00 0.00 0.00 91 1029.6
20260507031950 42 0.0 0.0 0.00 0.00 0.00 91 1029.5
20260507030950 42 0.0 0.0 0.00 0.00 0.00 91 1029.4
20260507025950 42 0.0 0.0 0.00 0.00 0.00 90 1029.5
20260507024950 43 0.0 0.0 0.00 0.00 0.00 91 1029.4
20260507023950 42 0.0 0.0 0.00 0.00 0.00 91 1029.4
20260507022950 42 0.0 0.0 0.00 0.00 0.00 91 1029.3
20260507021950 42 0.0 0.0 0.00 0.00 0.00 91 1029.2
20260507020950 42 0.0 0.0 0.00 0.00 0.00 90 1029.2
20260507015950 43 0.0 0.0 0.00 0.00 0.00 90 1029.2
20260507014950 43 0.0 0.0 0.00 0.00 0.00 91 1029.1
20260507013950 43 0.0 0.0 0.00 0.00 0.00 90 1029.1
20260507012950 43 0.0 0.0 0.00 0.00 0.00 90 1029.1
20260507011950 43 0.0 0.0 0.00 0.00 0.00 91 1029.1
20260507010950 43 0.0 0.0 0.00 0.00 0.00 91 1029.0
20260507005950 43 0.0 0.0 0.00 0.00 0.00 90 1028.9
20260507004950 44 0.0 0.0 0.00 0.00 0.00 90 1029.0
20260507003950 44 0.0 0.0 0.00 0.00 0.00 90 1029.0
20260507002950 44 0.0 0.0 0.00 0.00 0.00 90 1028.9
20260507001950 44 0.0 0.0 0.00 0.00 0.00 90 1028.8
20260507000950 44 0.0 0.0 0.00 0.00 0.00 90 1028.8
20260506235950 44 0.0 0.0 0.00 0.00 0.00 91 1028.8
20260506234950 44 0.0 0.0 0.00 0.00 0.00 91 1028.8
20260506233950 44 0.0 0.0 0.00 0.00 0.00 91 1028.8
20260506232950 44 0.0 0.0 0.00 0.00 0.00 91 1028.8
20260506231950 44 0.0 0.0 0.00 0.00 0.00 90 1028.7
20260506230950 44 0.0 0.0 0.00 0.00 0.00 90 1028.8
20260506225950 44 0.0 0.0 0.00 0.00 0.00 90 1028.8
20260506224950 45 0.0 0.0 0.00 0.00 0.00 89 1028.8
20260506223950 45 0.0 0.0 0.00 0.00 0.00 89 1028.8
20260506222950 44 0.0 0.0 0.00 0.00 0.00 90 1028.8
20260506221950 45 0.0 0.0 0.00 0.00 0.00 88 1028.8
20260506220950 45 0.0 0.0 0.00 0.00 0.00 88 1028.8
20260506215950 45 0.0 0.0 0.00 0.00 0.00 88 1028.9
20260506214950 46 0.0 0.0 0.00 0.00 0.00 88 1028.8
20260506213950 45 0.0 0.0 0.00 0.00 0.00 89 1028.7
20260506212950 46 0.0 0.0 0.00 0.00 0.00 88 1028.8
20260506211950 46 0.0 0.0 0.00 0.00 0.00 88 1028.7
20260506210950 46 0.0 0.0 0.00 0.00 0.00 88 1028.7
20260506205950 46 0.0 0.0 0.00 0.00 0.00 89 1028.8
20260506204950 47 0.0 0.0 0.00 0.00 0.00 88 1028.7
20260506203950 47 0.0 0.0 0.00 0.00 0.00 88 1028.6
20260506202950 47 0.0 0.0 0.00 0.00 0.00 88 1028.6
20260506201950 47 0.0 0.0 0.00 0.00 0.00 88 1028.6
20260506200950 47 0.0 0.0 0.00 0.00 0.00 88 1028.5
20260506195950 48 0.0 0.0 0.00 0.00 0.00 88 1028.5
20260506194950 48 0.0 0.0 0.00 0.00 0.00 88 1028.5
20260506193950 48 0.0 0.0 0.00 0.00 0.00 88 1028.6
20260506192950 48 0.0 0.0 0.00 0.00 0.00 87 1028.5
20260506191950 48 0.0 0.0 0.00 0.00 0.00 88 1028.5
20260506190950 49 0.0 0.0 0.00 0.00 0.00 86 1028.5
20260506185950 50 0.0 0.0 0.00 0.00 0.00 86 1028.4
20260506184950 50 0.0 0.0 0.00 0.00 0.00 86 1028.4
20260506183950 50 0.0 0.0 0.00 0.00 0.00 85 1028.4
20260506182950 51 0.0 0.0 0.00 0.00 0.00 85 1028.3
20260506181950 51 0.0 0.0 0.00 0.00 0.00 85 1028.4
20260506180950 51 0.0 0.0 0.00 0.00 0.00 83 1028.3
20260506175950 52 0.0 0.0 0.00 0.00 0.00 83 1028.3
20260506174950 53 0.0 0.0 0.00 0.00 0.00 79 1028.2
20260506173949 54 0.0 0.0 0.00 0.00 0.00 78 1028.1
20260506172950 54 0.0 0.0 0.00 0.00 0.00 79 1028.1
20260506171950 55 0.0 0.0 0.00 0.00 0.00 78 1028.0
20260506170950 55 0.0 0.0 0.00 0.00 0.00 77 1028.0
20260506165950 55 0.0 0.0 0.00 0.00 0.00 77 1028.1
20260506164950 56 0.0 0.0 0.00 0.00 0.00 75 1028.1
20260506163949 57 0.0 0.0 0.00 0.00 0.00 73 1028.1
20260506162949 57 0.0 0.0 0.00 0.00 0.00 73 1028.2
20260506161949 59 0.0 0.0 0.00 0.00 0.00 69 1028.2
20260506160949 59 0.0 0.0 0.00 0.00 0.00 69 1028.2
20260506155949 60 0.0 0.0 0.00 0.00 0.00 66 1028.2
20260506154950 61 0.0 0.0 0.00 0.00 0.00 64 1028.2
20260506153949 62 0.0 0.0 0.00 0.00 0.00 62 1028.2
20260506152949 62 0.0 0.0 0.00 0.00 0.00 61 1028.1
20260506151949 63 0.0 0.0 0.00 0.00 0.00 60 1028.1
20260506150949 64 0.0 0.0 0.00 0.00 0.00 59 1028.2
20260506145949 64 0.0 0.0 0.00 0.00 0.00 57 1028.2
20260506144949 65 0.0 0.0 0.00 0.00 0.00 56 1028.3
20260506143950 65 0.0 0.0 0.00 0.00 0.00 55 1028.2
20260506142949 66 0.0 0.0 0.00 0.00 0.00 55 1028.2
20260506141949 66 0.0 0.0 0.00 0.00 0.00 54 1028.2
20260506140949 65 0.0 0.0 0.00 0.00 0.00 53 1028.2
20260506135949 67 0.0 0.0 0.00 0.00 0.00 53 1028.3
20260506134949 67 0.0 0.0 0.00 0.00 0.00 53 1028.3
20260506133949 67 0.0 0.0 0.00 0.00 0.00 54 1028.2
20260506132949 67 0.0 0.0 0.00 0.00 0.00 54 1028.2
20260506131949 67 0.0 0.0 0.00 0.00 0.00 54 1028.3
20260506130949 68 0.0 0.0 0.00 0.00 0.00 53 1028.3
20260506125949 68 0.0 0.0 0.00 0.00 0.00 54 1028.3
20260506124949 68 0.0 0.0 0.00 0.00 0.00 54 1028.3
20260506123949 69 0.0 0.0 0.00 0.00 0.00 53 1028.3
20260506122949 68 0.0 0.0 0.00 0.00 0.00 54 1028.4
20260506121949 68 0.0 0.0 0.00 0.00 0.00 55 1028.5
20260506120949 68 0.0 0.0 0.00 0.00 0.00 55 1028.6
20260506115949 68 0.0 0.0 0.00 0.00 0.00 55 1028.7
20260506114949 67 0.0 0.0 0.00 0.00 0.00 56 1028.7
20260506113949 66 0.0 0.0 0.00 0.00 0.00 56 1028.7
20260506112949 64 0.0 0.0 0.00 0.00 0.00 60 1028.6
20260506111949 66 0.0 0.0 0.00 0.00 0.00 58 1028.6
20260506110949 69 0.0 0.0 0.00 0.00 0.00 58 1028.7
20260506105949 67 0.0 0.0 0.00 0.00 0.00 57 1028.7
20260506104949 66 0.0 0.0 0.00 0.00 0.00 59 1028.8
20260506103949 68 0.0 0.0 0.00 0.00 0.00 57 1028.9
20260506102949 66 0.0 0.0 0.00 0.00 0.00 60 1028.8
20260506101949 66 0.0 0.0 0.00 0.00 0.00 60 1028.8
20260506100949 66 0.0 0.0 0.00 0.00 0.00 61 1028.8
20260506095949 64 0.0 0.0 0.00 0.00 0.00 63 1028.8
20260506094949 63 0.0 0.0 0.00 0.00 0.00 63 1028.8
20260506093949 64 0.0 0.0 0.00 0.00 0.00 63 1028.9
20260506092949 64 0.0 0.0 0.00 0.00 0.00 63 1029.0
20260506091949 63 0.0 0.0 0.00 0.00 0.00 64 1029.0
20260506090949 64 0.0 0.0 0.00 0.00 0.00 64 1029.1
20260506085949 62 0.0 0.0 0.00 0.00 0.00 69 1029.1